STARLINK-4584 (53571 NORAD) Tracking and Keplerian Element Data

This shows tracking and keplerian element data for the satellite.

Feedback or suggestion? Click here.




ElementValue
Catalog53571
NameSTARLINK-4584
Epoch Orbit1461
Epoch Day325.25001157
Epoch Year2022
RAAN61.0011
Inclination53.2149
Eccentricity0.0001322
Argument of Perigee73.8325
Mean Anonmoly27.2715
Mean Motion15.08823043
Decay Rate0.00038081
L11 53571U 22101AW 22325.25001157 .00038081 00000+0 23990-2 0 9996
L22 53571 53.2149 61.0011 0001322 73.8325 27.2715 15.08823043 14612



Live tracking and technical data element details for STARLINK-4584 (NORAD 53571). STARLINK-4584 can be tracked NOW for your location showing map with azimuth and elevation plus other details from your city location.







IsCatalogInMostPopularTable: catalog: 53571, numindb: 4
Update: records affected: 1



GetName: 53571 STARLINK-4584

Hit Count: updated at: Thu, 08 Dec 2022 19:36:59 GMT